Location: Tucson
(32.2217°N, 110.9265°W)
Time: 02:34:35
(UTC-07:00)

SR - All Passes

Search period start: 21 October 2021 00:00
Search period end: 31 October 2021 00:00
Orbit: 582 x 872 km, 66.7° (Epoch: 20 October)

Date Brightness Start Highest point End Pass type
(mag) Time Alt. Az. Time Alt. Az. Time Alt. Az.
21 Oct - 08:35:07 10° SE 08:37:19 13° ESE 08:39:27 10° E daylight
21 Oct - 10:13:46 10° SW 10:18:57 59° WNW 10:23:43 10° NNE daylight
21 Oct - 18:59:44 10° N 19:03:21 27° ENE 19:07:01 10° ESE visible
21 Oct - 20:42:02 10° WNW 20:45:08 20° WSW 20:48:17 10° SSW visible
22 Oct - 09:23:56 10° SSW 09:29:08 61° ESE 09:33:56 10° NE daylight
22 Oct - 11:08:47 10° W 11:11:24 14° NW 11:13:56 10° NNW daylight
22 Oct - 18:11:37 10° NNE 18:13:15 12° NE 18:14:53 10° ENE visible
22 Oct - 19:51:22 10° NW 19:55:28 50° WSW 19:59:42 10° S visible
23 Oct - 08:35:04 10° SSE 08:39:26 26° ESE 08:43:30 10° NE daylight
23 Oct - 10:16:51 10° WSW 10:21:19 29° WNW 10:25:30 10° N daylight
23 Oct - 19:01:31 10° NNW 19:05:42 60° ENE 19:10:00 10° SE visible
24 Oct - 07:48:16 10° ESE 07:49:49 11° ESE 07:51:21 10° E daylight
24 Oct - 09:26:14 10° SW 09:31:25 65° WNW 09:36:11 10° NNE daylight
24 Oct - 18:12:16 10° N 18:15:47 25° ENE 18:19:20 10° ESE visible
24 Oct - 19:54:19 10° WNW 19:57:36 22° WSW 20:00:58 10° SSW visible
25 Oct - 08:36:30 10° S 08:41:37 55° ESE 08:46:20 10° NE daylight
25 Oct - 10:20:59 10° W 10:23:50 15° NW 10:26:36 10° NNW daylight
25 Oct - 17:24:32 10° NE 17:25:40 11° NE 17:26:48 10° ENE daylight
25 Oct - 19:03:47 10° NW 19:07:57 56° WSW 19:12:14 10° S visible
26 Oct - 07:47:45 10° SSE 07:51:55 24° ESE 07:55:50 10° NE daylight
26 Oct - 09:29:13 10° WSW 09:33:46 31° WNW 09:38:01 10° N daylight
26 Oct - 18:14:00 10° NNW 18:18:09 54° ENE 18:22:26 10° SE visible
27 Oct - 08:38:42 10° SSW 08:43:53 71° WNW 08:48:39 10° NNE daylight
27 Oct - 17:24:50 10° N 17:28:13 23° ENE 17:31:39 10° ESE daylight
27 Oct - 19:06:38 10° NW 19:10:05 24° WSW 19:13:37 10° SSW visible
28 Oct - 07:49:04 10° S 07:54:06 50° ESE 07:58:45 10° NE daylight
28 Oct - 09:33:11 10° W 09:36:16 16° NW 09:39:14 10° NNW daylight
28 Oct - 18:16:12 10° NNW 18:20:24 63° WSW 18:24:45 10° SSE visible
29 Oct - 07:00:27 10° SSE 07:04:24 22° ESE 07:08:07 10° ENE daylight
29 Oct - 08:41:36 10° SW 08:46:13 34° WNW 08:50:32 10° N daylight
29 Oct - 17:26:28 10° NNW 17:30:36 49° ENE 17:34:51 10° SE daylight
29 Oct - 19:11:24 10° W 19:12:08 10° WSW 19:12:52 10° WSW visible
30 Oct - 07:51:11 10° SSW 07:56:21 77° WNW 08:01:07 10° NNE daylight
30 Oct - 16:37:24 10° N 16:40:38 21° ENE 16:43:56 10° ESE daylight
30 Oct - 18:18:58 10° NW 18:22:33 27° WSW 18:26:15 10° SSW visible
